Погода в Устьевом

Россия / Камчатский край     54°09′17″N   155°50′36″E
темп.,
°C
ветер,
м/с
пор.,
м/с
влажн.,
%
обл.,
%
осадки,
мм/ч
давл.,
гПа
погр.,
м
28 ноября, вс
вс2800:00−8с1621680 0.0 1005720
03:00−8с1520690 0.0 1005805
06:00−7с1419680 0.0 1006870
09:00−7с1217650 0.0 1007961
12:00−7с1016660 0.0 1008888
15:00−6с812684 0.0 1008783
18:00−7ссв69685 0.0 1009392
21:00−8св457094 0.0 1009223
29 ноября, пн
пн2900:00−9в33705 0.0 1009150
03:00−9вюв446768 0.0 1009138
06:00−7ю346798 0.0 1010238
09:00−6юв2483100 0.2 1010419
12:00−4зюз1470100 0.4 1011607
15:00−1з3556100 0.1 10101356
18:00−2ююз2363100 0.3 1011963
21:00−4ююв5587100 0.3 1011288
30 ноября, вт
вт3000:00−4ююв5794100 0.8 1010331
03:00−4ююв6890100 1.0 1008314
06:00−5в3378100 1.5 1007240
09:00−4с4591100 0.4 1006283
12:00−2ссз91085100 1.1 10081015
15:00−2зсз101154100 0.6 10111756
18:00−3зсз111259100 1.0 10141845
21:00−2зсз111259100 0.8 10161677
1 декабря, ср
ср100:00−2зсз91156100 1.4 10181846
03:00−2з6855100 0.4 10191448
06:00−1зюз81061100 0.9 10191406
09:000зюз81062100 0.8 10191221
12:000юз8853100 1.1 10201285
15:000ююв6663100 0.0 1019680
18:00−2юв81286100 0.0 1017463
21:00−2в6983100 0.5 1011252
2 декабря, чт
чт200:000вюв91897100 6.1 1004765
03:00+5ююв193089100 4.1 996708
06:00+7ююв213185100 9.4 990904
09:00+7ююв223485100 9.1 983966
12:00+7ююв193089100 16.4 9811026
15:00+5ю18269157 5.3 978929
18:00+2ю142197100 6.2 9791406
21:00+2ю172273100 2.1 9791879